Weather History for KMHV - October, 2012

Change the Weather History Date:

Wednesday, October 3, 2012

  Actual Average Record
Temperature  
Mean Temperature 79 °F -  
Max Temperature 89 °F 83 °F 100 °F (1980)
Min Temperature 69 °F 53 °F 41 °F (1971)
Cooling Degree Days 14    
Growing Degree Days 29 (Base 50)    
Moisture  
Dew Point 36 °F    
Average Humidity 21    
Maximum Humidity 29    
Minimum Humidity 10    
Precipitation  
Precipitation 0.00 in - - ()
Sea Level Pressure  
Sea Level Pressure 29.99 in    
Wind  
Wind Speed 17 mph (SW)    
Max Wind Speed 28 mph    
Max Gust Speed 33 mph    
Visibility 10 miles    
Events      
Averages and records for this station are not official NWS values.
T = Trace of Precipitation, MM = Missing Value Source: NWS Daily Summary

Daily Weather History Graph

Daily Weather History Graph

Search for Another Location

Airport or City:

Trip Planner

Search our weather history database for the weather conditions in past years. The results will help you decide how hot, cold, wet, or windy it might be!

Date:

Astronomy

Oct. 03, 2012 Rise Set
Actual Time 6:49 AM PDT 6:32 PM PDT
Civil Twilight 6:24 AM PDT 6:58 PM PDT
Nautical Twilight 5:54 AM PDT 7:27 PM PDT
Astronomical Twilight 5:25 AM PDT 7:56 PM PDT
Moon 8:38 PM PDT (10/3) 10:07 AM PDT (10/3)
Length of Visible Light 12h 34m
Length of Day
11h 43m
Waning Gibbous, 88% of the Moon is Illuminated
Oct 3
Waning Gibbous
Oct 8
Last Quarter
Oct 15
New
Oct 21
First Quarter
Oct 29
Full

Hourly Weather History & Observations

Time (PDT) Temp. Dew Point Humidity Pressure Visibility Wind Dir Wind Speed Gust Speed Precip Events Conditions
12:15 AM 80.6 °F 37.4 °F 21% 29.94 in 10.0 mi WNW 26.5 mph 31.1 mph N/A   Clear
12:35 AM 82.4 °F 39.2 °F 21% 29.95 in 10.0 mi West 16.1 mph 31.1 mph N/A   Clear
12:55 AM 80.6 °F 41.0 °F 24% 29.95 in 10.0 mi WNW 17.3 mph 29.9 mph N/A   Clear
1:15 AM 80.6 °F 41.0 °F 24% 29.95 in 10.0 mi NW 19.6 mph 29.9 mph N/A   Clear
1:35 AM 80.6 °F 41.0 °F 24% 29.96 in 10.0 mi NW 16.1 mph 23.0 mph N/A   Clear
1:55 AM 80.6 °F 41.0 °F 24% 29.96 in 10.0 mi West 15.0 mph 25.3 mph N/A   Clear
2:15 AM 80.6 °F 42.8 °F 26% 29.96 in 10.0 mi West 16.1 mph 24.2 mph N/A   Clear
2:35 AM 78.8 °F 42.8 °F 28% 29.97 in 10.0 mi WSW 12.7 mph 24.2 mph N/A   Clear
2:55 AM 77.0 °F 41.0 °F 28% 29.96 in 10.0 mi SW 8.1 mph 20.7 mph N/A   Clear
3:15 AM 77.0 °F 41.0 °F 28% 29.96 in 10.0 mi WSW 10.4 mph 21.9 mph N/A   Clear
3:35 AM 77.0 °F 41.0 °F 28% 29.96 in 10.0 mi WSW 12.7 mph - N/A   Clear
3:55 AM 77.0 °F 41.0 °F 28% 29.96 in 10.0 mi SW 11.5 mph 21.9 mph N/A   Clear
4:35 AM 75.2 °F 39.2 °F 27% 29.96 in 10.0 mi SW 15.0 mph - N/A   Clear
4:55 AM 77.0 °F 39.2 °F 26% 29.97 in 10.0 mi WSW 16.1 mph 20.7 mph N/A   Clear
5:15 AM 78.8 °F 39.2 °F 24% 29.97 in 10.0 mi SW 17.3 mph 27.6 mph N/A   Clear
5:35 AM 77.0 °F 37.4 °F 24% 29.97 in 10.0 mi SW 15.0 mph 18.4 mph N/A   Clear
6:15 AM 80.6 °F 35.6 °F 20% 29.97 in 10.0 mi West 21.9 mph 27.6 mph N/A   Clear
6:35 AM 75.2 °F 37.4 °F 25% 29.98 in 10.0 mi WSW 16.1 mph - N/A   Clear
6:55 AM 75.2 °F 37.4 °F 25% 29.99 in 10.0 mi SW 8.1 mph - N/A   Clear
7:15 AM 75.2 °F 37.4 °F 25% 29.99 in 10.0 mi WSW 9.2 mph - N/A   Clear
7:35 AM 75.2 °F 37.4 °F 25% 30.00 in 10.0 mi SW 9.2 mph - N/A   Clear
7:55 AM 78.8 °F 35.6 °F 21% 30.00 in 10.0 mi WSW 9.2 mph - N/A   Clear
8:15 AM 80.6 °F 35.6 °F 20% 30.01 in 10.0 mi SW 4.6 mph - N/A   Clear
8:35 AM 80.6 °F 35.6 °F 20% 30.02 in 10.0 mi SW 3.5 mph - N/A   Clear
8:55 AM 82.4 °F 35.6 °F 19% 30.02 in 10.0 mi WSW 3.5 mph - N/A   Clear
9:15 AM 86.0 °F 30.2 °F 13% 30.02 in 10.0 mi SW 15.0 mph 23.0 mph N/A   Clear
9:35 AM 86.0 °F 28.4 °F 12% 30.02 in 10.0 mi SW 19.6 mph 25.3 mph N/A   Clear
9:55 AM 86.0 °F 28.4 °F 12% 30.03 in 10.0 mi SSW 18.4 mph 24.2 mph N/A   Clear
10:15 AM 87.8 °F 28.4 °F 12% 30.03 in 10.0 mi SW 19.6 mph 28.8 mph N/A   Clear
10:35 AM 87.8 °F 28.4 °F 12% 30.03 in 10.0 mi SSW 19.6 mph 25.3 mph N/A   Clear
10:55 AM 89.6 °F 28.4 °F 11% 30.02 in 10.0 mi SW 20.7 mph 26.5 mph N/A   Clear
11:15 AM 89.6 °F 28.4 °F 11% 30.02 in 10.0 mi SW 16.1 mph 26.5 mph N/A   Clear
11:35 AM 89.6 °F 28.4 °F 11% 30.02 in 10.0 mi SSW 21.9 mph 33.4 mph N/A   Clear
11:55 AM 89.6 °F 28.4 °F 11% 30.02 in 10.0 mi SSW 27.6 mph 32.2 mph N/A   Clear
12:15 PM 89.6 °F 28.4 °F 11% 30.02 in 10.0 mi SSW 23.0 mph 29.9 mph N/A   Clear
12:35 PM 89.6 °F 28.4 °F 11% 30.01 in 10.0 mi SSW 23.0 mph 26.5 mph N/A   Clear
12:55 PM 89.6 °F 28.4 °F 11% 30.01 in 10.0 mi SSW 21.9 mph 28.8 mph N/A   Clear
1:15 PM 89.6 °F 26.6 °F 10% 30.00 in 10.0 mi SSW 21.9 mph - N/A   Clear
1:35 PM 89.6 °F 26.6 °F 10% 29.99 in 10.0 mi SW 20.7 mph 28.8 mph N/A   Clear
1:55 PM 89.6 °F 26.6 °F 10% 29.99 in 10.0 mi SSW 20.7 mph 27.6 mph N/A   Clear
2:15 PM 89.6 °F 26.6 °F 10% 29.99 in 10.0 mi SSW 21.9 mph 25.3 mph N/A   Clear
2:35 PM 89.6 °F 26.6 °F 10% 29.98 in 10.0 mi SSW 18.4 mph 26.5 mph N/A   Clear
2:55 PM 87.8 °F 32.0 °F 14% 29.98 in 10.0 mi SSW 21.9 mph 25.3 mph N/A   Clear
3:15 PM 89.6 °F 32.0 °F 13% 29.98 in 10.0 mi SSW 18.4 mph 27.6 mph N/A   Clear
3:35 PM 89.6 °F 32.0 °F 13% 29.98 in 10.0 mi SSW 20.7 mph 24.2 mph N/A   Clear
3:55 PM 87.8 °F 35.6 °F 16% 29.98 in 10.0 mi SSW 21.9 mph 28.8 mph N/A   Clear
4:15 PM 86.0 °F 37.4 °F 18% 29.98 in 10.0 mi SSW 20.7 mph 26.5 mph N/A   Clear
4:35 PM 86.0 °F 39.2 °F 19% 29.98 in 10.0 mi SSW 19.6 mph 32.2 mph N/A   Clear
4:55 PM 86.0 °F 41.0 °F 20% 29.98 in 10.0 mi SSW 24.2 mph 29.9 mph N/A   Clear
5:15 PM 84.2 °F 42.8 °F 23% 29.98 in 10.0 mi SSW 25.3 mph 29.9 mph N/A   Clear
5:35 PM 82.4 °F 41.0 °F 23% 29.98 in 10.0 mi SSW 20.7 mph 27.6 mph N/A   Clear
5:55 PM 82.4 °F 41.0 °F 23% 29.98 in 10.0 mi SSW 18.4 mph 26.5 mph N/A   Clear
6:15 PM 80.6 °F 41.0 °F 24% 29.98 in 10.0 mi SSW 17.3 mph 26.5 mph N/A   Clear
6:35 PM 78.8 °F 41.0 °F 26% 29.98 in 10.0 mi SSW 17.3 mph 27.6 mph N/A   Clear
6:55 PM 77.0 °F 41.0 °F 28% 29.99 in 10.0 mi SSW 17.3 mph 26.5 mph N/A   Clear
7:15 PM 77.0 °F 41.0 °F 28% 29.99 in 10.0 mi SSW 15.0 mph 24.2 mph N/A   Clear
7:35 PM 77.0 °F 39.2 °F 26% 29.99 in 10.0 mi SW 18.4 mph 23.0 mph N/A   Clear
7:55 PM 75.2 °F 39.2 °F 27% 30.00 in 10.0 mi SW 16.1 mph 20.7 mph N/A   Clear
8:15 PM 75.2 °F 39.2 °F 27% 30.00 in 10.0 mi SW 13.8 mph - N/A   Clear
8:35 PM 75.2 °F 39.2 °F 27% 30.01 in 10.0 mi SW 15.0 mph 23.0 mph N/A   Clear
8:55 PM 73.4 °F 39.2 °F 29% 30.01 in 10.0 mi SW 15.0 mph 20.7 mph N/A   Clear
9:15 PM 75.2 °F 39.2 °F 27% 30.01 in 10.0 mi SSW 16.1 mph - N/A   Clear
9:35 PM 73.4 °F 39.2 °F 29% 30.02 in 10.0 mi SSW 11.5 mph - N/A   Clear
9:55 PM 71.6 °F 37.4 °F 29% 30.03 in 10.0 mi SW 13.8 mph - N/A   Clear
10:15 PM 73.4 °F 37.4 °F 27% 30.03 in 10.0 mi SSW 11.5 mph - N/A   Clear
10:35 PM 71.6 °F 35.6 °F 27% 30.03 in 10.0 mi SW 11.5 mph - N/A   Clear
10:55 PM 69.8 °F 35.6 °F 28% 30.04 in 10.0 mi WSW 12.7 mph - N/A   Clear
11:15 PM 75.2 °F 37.4 °F 25% 30.03 in 10.0 mi SW 17.3 mph 25.3 mph N/A   Clear
11:35 PM 75.2 °F 37.4 °F 25% 30.03 in 10.0 mi SW 18.4 mph 28.8 mph N/A   Clear
11:55 PM 73.4 °F 37.4 °F 27% 30.03 in 10.0 mi WSW 17.3 mph 25.3 mph N/A   Clear